Flag for Netherlands Weather past 2 weeks in Rotterdam, Netherlands

Now
64 °F

Clear.


Feels Like: 64 °F
Forecast: 54 / 59 °F
Wind: 7 mph from Southwest

Location: Rotterdam Zestienhoven Airport

Current Time: Sep 23, 2014 at 1:22:11 PM

Latest Report: Sep 23, 2014 at 12:55 PM


Visibility: N/A

Pressure: 30.12 "Hg

Humidity: 60%

Dew point: 50 °F

Location of RotterdamLocation

Historic Weather in Rotterdam — Graph

°F

Rotterdam temperature yesterday

Maximum temperature yesterday: 63 °F (at 12:55 PM)
Minimum temperature yesterday: 48 °F (at 11:25 PM)
Average temperature yesterday: 57 °F

Past Weeks' High & Low Weather Summary

 TemperatureHumidityPressure
High79 °F (Sep 18, 1:55 PM)100% (Sep 8, 10:55 PM)30.30 "Hg (Sep 8, 10:55 PM)
Low46 °F (Sep 11, 3:25 AM)51% (Sep 17, 2:55 PM)29.80 "Hg (Sep 18, 6:25 AM)
Average61 °F82%30.06 "Hg
* Reported Sep 8 11:25 AM — Sep 23 11:55 AM, Rotterdam, Weather by CustomWeather, © 2014

Note: Actual official high and low records may vary slightly from our data, if they occured in-between our weather recording intervals... More about our weather records

Advertising

Rotterdam weather history for previous 24 hours

 ConditionsComfort  
Time TempWeatherWind HumidityBarometerVisibility
11:55 AM
Sep 23
63 °FOvercast.7 mph64%30.15 "HgN/A
11:25 AM63 °FPartly sunny.7 mph64%30.15 "Hg6 mi
10:55 AM61 °FPartly sunny.6 mph68%30.15 "Hg5 mi
10:25 AM61 °FPassing clouds.6 mph68%30.15 "Hg5 mi
9:55 AM59 °FCool.5 mph77%30.15 "Hg4 mi
9:25 AM57 °FMore clouds than sun.2 mph82%30.15 "Hg4 mi
8:55 AM52 °FFog.2 mph100%30.15 "Hg3 mi
8:25 AM46 °FFog.2 mph100%30.15 "Hg3 mi
7:55 AM46 °FFog.2 mph100%30.15 "Hg3 mi
7:25 AM46 °FFog.2 mph100%30.15 "Hg3 mi
6:55 AM46 °FFog.2 mph100%30.15 "Hg2 mi
6:25 AM46 °FFog.2 mph100%30.15 "Hg3 mi
5:55 AM46 °FFog.1 mph100%30.15 "Hg2 mi
5:25 AM46 °FFog.1 mph100%30.15 "Hg3 mi
4:55 AM46 °FCool.1 mph100%30.15 "Hg4 mi
4:25 AM48 °FCool.1 mph94%30.15 "Hg6 mi
3:55 AM50 °FPartly cloudy.2 mph94%30.15 "Hg6 mi
3:25 AM48 °FOvercast.1 mph94%30.18 "HgN/A
2:55 AM48 °FOvercast.1 mph100%30.18 "Hg5 mi
2:25 AM46 °FPassing clouds.2 mph100%30.18 "Hg5 mi
1:55 AM46 °FFog.1 mph100%30.18 "Hg3 mi
1:25 AM46 °FPassing clouds.1 mph100%30.18 "Hg5 mi
12:55 AM46 °FCool.2 mph100%30.21 "Hg6 mi
12:25 AM46 °FCool.2 mph93%30.21 "Hg4 mi
11:55 PM
Sep 22
48 °FPassing clouds.3 mph94%30.21 "HgN/A
11:25 PM48 °FCool.1 mph94%30.21 "HgN/A
10:55 PM50 °FPassing clouds.2 mph88%30.21 "HgN/A
10:25 PM50 °FClear.2 mph88%30.21 "HgN/A
9:55 PM52 °FClear.2 mph82%30.18 "HgN/A
9:25 PM52 °FClear.1 mph82%30.18 "HgN/A
8:55 PM52 °FPartly cloudy.2 mph82%30.18 "HgN/A
8:25 PM52 °FScattered clouds.2 mph77%30.18 "HgN/A
7:55 PM54 °FClear.5 mph72%30.18 "HgN/A
7:25 PM55 °FClear.6 mph67%30.18 "HgN/A
6:55 PM59 °FScattered clouds.6 mph59%30.18 "HgN/A
6:25 PM59 °FPassing clouds.9 mph59%30.18 "HgN/A
5:55 PM61 °FClear.12 mph55%30.18 "HgN/A
5:25 PM59 °FScattered clouds.12 mph59%30.18 "HgN/A
4:55 PM61 °FPartly sunny.9 mph59%30.18 "HgN/A
4:25 PM59 °FDrizzle. Mostly cloudy.13 mph68%30.18 "HgN/A
3:55 PM61 °FBroken clouds.9 mph63%30.15 "HgN/A
3:25 PM61 °FBroken clouds.12 mph59%30.15 "HgN/A
2:55 PM63 °FBroken clouds.14 mph68%30.15 "HgN/A
2:25 PM57 °FLight rain. Cloudy.12 mph77%30.18 "HgN/A
1:55 PM61 °FMostly cloudy.17 mph63%30.15 "HgN/A
1:25 PM63 °FScattered clouds.15 mph64%30.15 "HgN/A
Weather by CustomWeather, © 2014

See weather overviewHow to use our weather pages